Phoenix, AZ

4:23 PM MST on May 29, 2017 (GMT -0700)
Phoenix Sky Harbor International

Weather History for KPHX - May, 2014

Change the Weather History Date:

Monday, May 26, 2014

  Actual Average Record
Temperature  
Mean Temperature 90 °F 85 °F  
Max Temperature 104 °F 98 °F 112 °F (1951)
Min Temperature 76 °F 72 °F 48 °F (1916)
Degree Days  
Heating Degree Days 0 0  
Month to date heating degree days 0 0  
Since 1 July heating degree days 546 934  
Cooling Degree Days 25 20  
Month to date cooling degree days 431 427  
Year to date cooling degree days 936 782  
Growing Degree Days 40 (Base 50)    
Moisture  
Dew Point 38 °F    
Average Humidity 19    
Maximum Humidity 28    
Minimum Humidity 9    
Precipitation  
Precipitation 0.00 in 0.01 in 0.14 in (1926)
Month to date precipitation 0.00 0.10  
Year to date precipitation 0.99 3.20  
Snow  
Snow 0.00 in - - ()
Month to date snowfall 0.0  
Year to date snowfall 0.0  
Since 1 July snowfall 0.0  
Snow Depth 0.00 in    
Sea Level Pressure  
Sea Level Pressure 29.79 in    
Wind  
Wind Speed 7 mph (West)    
Max Wind Speed 21 mph    
Max Gust Speed 26 mph    
Visibility 10 miles    
Events      
T = Trace of Precipitation, MM = Missing Value Source: NWS Daily Summary

Daily Weather History Graph

Daily Weather History Graph

Search for Another Location

Airport or City:

Trip Planner

Search our weather history database for the weather conditions in past years. The results will help you decide how hot, cold, wet, or windy it might be!

Date:

Astronomy

May. 26, 2014 Rise Set
Actual Time 5:21 AM MST 7:29 PM MST
Civil Twilight 4:53 AM MST 7:57 PM MST
Nautical Twilight 4:19 AM MST 8:31 PM MST
Astronomical Twilight 3:42 AM MST 9:08 PM MST
Moon 3:58 AM MST (5/26) 5:41 PM MST (5/26)
Length of Visible Light 15h 03m
Length of Day
14h 07m
Waning Crescent, 4% of the Moon is Illuminated
May 26
Waning Crescent
May 28
New
Jun 5
First Quarter
Jun 12
Full
Jun 19
Last Quarter

Hourly Weather History & Observations

Time (MST) Temp. Dew Point Humidity Pressure Visibility Wind Dir Wind Speed Gust Speed Precip Events Conditions
12:51 AM 86.0 °F 42.1 °F 21% 29.75 in 10.0 mi West 3.5 mph - N/A   Partly Cloudy
1:51 AM 84.9 °F 41.0 °F 21% 29.76 in 10.0 mi NNW 4.6 mph - N/A   Clear
2:51 AM 80.1 °F 41.0 °F 25% 29.77 in 10.0 mi Calm Calm - N/A   Clear
3:51 AM 78.1 °F 42.1 °F 28% 29.78 in 10.0 mi East 5.8 mph - N/A   Clear
4:51 AM 77.0 °F 37.9 °F 24% 29.79 in 10.0 mi East 6.9 mph - N/A   Partly Cloudy
5:51 AM 75.9 °F 39.0 °F 26% 29.82 in 10.0 mi East 6.9 mph - N/A   Clear
6:51 AM 78.1 °F 39.0 °F 25% 29.84 in 10.0 mi East 8.1 mph - N/A   Clear
7:51 AM 82.0 °F 39.9 °F 22% 29.85 in 10.0 mi ESE 5.8 mph - N/A   Clear
8:51 AM 86.0 °F 41.0 °F 20% 29.86 in 10.0 mi East 6.9 mph - N/A   Clear
9:51 AM 89.1 °F 41.0 °F 19% 29.86 in 10.0 mi Variable 5.8 mph - N/A   Clear
10:51 AM 91.9 °F 41.0 °F 17% 29.86 in 10.0 mi Variable 3.5 mph - N/A   Partly Cloudy
11:51 AM 93.2 °F 41.0 °F 16% 29.90 in 10.0 mi Calm Calm - N/A   Partly Cloudy
12:51 PM 98.6 °F 41.0 °F 14% 29.81 in 10.0 mi WNW 9.2 mph - N/A   Partly Cloudy
1:51 PM 100.4 °F 39.2 °F 12% 29.78 in 10.0 mi WNW 17.3 mph 20.7 mph N/A   Partly Cloudy
2:51 PM 102.2 °F 35.6 °F 10% 29.77 in 10.0 mi West 11.5 mph - N/A   Scattered Clouds
3:51 PM 104.0 °F 33.8 °F 9% 29.75 in 10.0 mi West 15.0 mph 23.0 mph N/A   Scattered Clouds
4:51 PM 100.4 °F 30.2 °F 9% 29.73 in 10.0 mi West 5.8 mph 19.6 mph N/A   Mostly Cloudy
5:51 PM 102.2 °F 33.8 °F 9% 29.72 in 10.0 mi West 10.4 mph - N/A   Mostly Cloudy
6:51 PM 100.4 °F 35.6 °F 11% 29.72 in 10.0 mi West 11.5 mph - N/A   Mostly Cloudy
7:51 PM 98.6 °F 35.6 °F 11% 29.73 in 10.0 mi WSW 6.9 mph - N/A   Mostly Cloudy
8:51 PM 95.0 °F 37.4 °F 13% 29.75 in 10.0 mi SW 4.6 mph - N/A   Mostly Cloudy
9:51 PM 93.2 °F 37.4 °F 14% 29.77 in 10.0 mi Calm Calm - N/A   Mostly Cloudy
10:51 PM 91.4 °F 37.4 °F 15% 29.78 in 10.0 mi Calm Calm - N/A   Mostly Cloudy
11:51 PM 89.6 °F 37.4 °F 16% 29.79 in 10.0 mi WSW 3.5 mph - N/A   Scattered Clouds